Powrót do katalogu

BREEZE-M DEB

AktywnyHEO
NORAD 37204·DEBRIS·🇷🇺 Russia

Wystrzelony Mar 14, 2008 z Baikonur Cosmodrome

Loading…

Następne Przeloty (najbliższe 24 godziny)

TLE

ŚwieżeSource: Space-Track

Epoka: Sep 13, 2026, 08:09 UTC

1 37204U 08011J   26256.33986427 -.00000368  00000-0 -83261-2 0  9990
2 37204  49.2987   0.1383 6388302 229.2626  70.4294  3.06527640 26581

Śledź BREEZE-M DEB w czasie rzeczywistym z AllMySat

Download on the App Store